This is the latest recevied weather packets stored in our database for station/object KB0Y. If no packets are shown the sender has not sent any weather packets the latest 10 day(s).
| Time | Temp. | Humidity | Pressure | Rain* | Wind** | Luminosity | Snow |
|---|---|---|---|---|---|---|---|
| 1777581609 | 30° C | 55% | 1012.2 hPa | 0 mm | - | 266 W/m² | - |
| 1777581303 | 30° C | 53% | 1012.5 hPa | 0 mm | - | 332 W/m² | - |
| 1777580998 | 30° C | 53% | 1012.2 hPa | 0 mm | - | 499 W/m² | - |
| 1777580697 | 29.44° C | 55% | 1012.5 hPa | 0 mm | - | 514 W/m² | - |
| 1777580394 | 29.44° C | 57% | 1012.8 hPa | 0 mm | - | 218 W/m² | - |
| 1777580090 | 30° C | 56% | 1012.8 hPa | 0 mm | - | 203 W/m² | - |
| 1777579787 | 30° C | 56% | 1012.8 hPa | 0 mm | - | 191 W/m² | - |
| 1777579484 | 30° C | 54% | 1012.8 hPa | 0 mm | - | 559 W/m² | - |
| 1777579180 | 30° C | 56% | 1012.8 hPa | 0 mm | - | 196 W/m² | - |
| 1777578875 | 30° C | 56% | 1012.8 hPa | 0 mm | - | 154 W/m² | - |
| 1777578571 | 30° C | 55% | 1012.8 hPa | 0 mm | - | 196 W/m² | - |
| 1777578266 | 30° C | 54% | 1013.2 hPa | 0 mm | - | 255 W/m² | - |
| 1777577962 | 30° C | 53% | 1012.8 hPa | 0 mm | - | 336 W/m² | - |
| 1777577657 | 30° C | 54% | 1013.2 hPa | 0 mm | - | 208 W/m² | - |
| 1777577355 | 30.56° C | 53% | 1013.2 hPa | 0 mm | - | 194 W/m² | - |
| 1777577050 | 30.56° C | 53% | 1013.5 hPa | 0 mm | - | 356 W/m² | - |
| 1777576748 | 30.56° C | 54% | 1013.5 hPa | 0 mm | - | 336 W/m² | - |
| 1777576446 | 30.56° C | 55% | 1013.2 hPa | 0 mm | - | 286 W/m² | - |
| 1777576144 | 30.56° C | 54% | 1013.5 hPa | 0 mm | - | 260 W/m² | - |
| 1777575838 | 30.56° C | 56% | 1013.2 hPa | 0 mm | - | 664 W/m² | - |
| 1777575535 | 30.56° C | 52% | 1013.2 hPa | 0 mm | - | 267 W/m² | - |
| 1777575231 | 30.56° C | 52% | 1013.5 hPa | 0 mm | - | 544 W/m² | - |
| 1777574927 | 30.56° C | 55% | 1013.5 hPa | 0 mm | - | 613 W/m² | - |
| 1777574624 | 30.56° C | 55% | 1013.5 hPa | 0 mm | - | 447 W/m² | - |
| 1777574321 | 30.56° C | 55% | 1013.5 hPa | 0 mm | - | 437 W/m² | - |
* Rain latest hour (hover to see other rain measurements)
** Current wind speed in m/s (hover to see current wind gust speed)